This is the latest recevied weather packets stored in our database for station/object W7TRD. If no packets are shown the sender has not sent any weather packets the latest 10 day(s).
| Time | Temp. | Humidity | Pressure | Rain* | Wind** | Luminosity | Snow |
|---|---|---|---|---|---|---|---|
| 1777504470 | 22.22° C | 47% | 1021.5 hPa | 0 mm | - | 498 W/m² | - |
| 1777504166 | 22.22° C | 47% | 1021.3 hPa | 0 mm | - | 510 W/m² | - |
| 1777503862 | 22.78° C | 45% | 1021.6 hPa | 0 mm | - | 521 W/m² | - |
| 1777503558 | 22.78° C | 46% | 1021.5 hPa | 0 mm | - | 532 W/m² | - |
| 1777503255 | 22.78° C | 47% | 1021.5 hPa | 0 mm | - | 542 W/m² | - |
| 1777502951 | 22.22° C | 48% | 1021.8 hPa | 0 mm | - | 554 W/m² | - |
| 1777502649 | 22.22° C | 47% | 1021.8 hPa | 0 mm | - | 564 W/m² | - |
| 1777502345 | 21.67° C | 48% | 1021.7 hPa | 0 mm | - | 575 W/m² | - |
| 1777502042 | 21.67° C | 48% | 1022 hPa | 0 mm | - | 585 W/m² | - |
| 1777501739 | 21.11° C | 49% | 1021.9 hPa | 0 mm | - | 595 W/m² | - |
| 1777501436 | 21.67° C | 48% | 1022.1 hPa | 0 mm | - | 607 W/m² | - |
| 1777501133 | 21.67° C | 48% | 1022 hPa | 0 mm | - | 610 W/m² | - |
| 1777500832 | 21.67° C | 47% | 1022 hPa | 0 mm | - | 620 W/m² | - |
| 1777500529 | 21.11° C | 48% | 1022.3 hPa | 0 mm | - | 630 W/m² | - |
| 1777500225 | 21.11° C | 49% | 1022.3 hPa | 0 mm | - | 637 W/m² | - |
| 1777499922 | 20.56° C | 48% | 1022.4 hPa | 0 mm | - | 645 W/m² | - |
| 1777499618 | 21.11° C | 48% | 1022.6 hPa | 0 mm | - | 652 W/m² | - |
| 1777499315 | 21.11° C | 49% | 1022.5 hPa | 0 mm | - | 662 W/m² | - |
| 1777499013 | 20.56° C | 48% | 1022.6 hPa | 0 mm | - | 669 W/m² | - |
| 1777498709 | 21.11° C | 48% | 1022.6 hPa | 0 mm | - | 677 W/m² | - |
| 1777498406 | 20.56° C | 50% | 1022.8 hPa | 0 mm | - | 683 W/m² | - |
| 1777498103 | 20° C | 49% | 1022.9 hPa | 0 mm | - | 688 W/m² | - |
| 1777497800 | 20° C | 50% | 1022.9 hPa | 0 mm | - | 694 W/m² | - |
| 1777497496 | 20° C | 50% | 1023 hPa | 0 mm | - | 701 W/m² | - |
| 1777497193 | 19.44° C | 51% | 1022.9 hPa | 0 mm | - | 707 W/m² | - |
* Rain latest hour (hover to see other rain measurements)
** Current wind speed in m/s (hover to see current wind gust speed)